Dillon, CO

4:18 PM MST on February 23, 2017 (GMT -0700)
Copper Mountain

Weather History for KCCU - August, 2013

Change the Weather History Date:

Friday, August 23, 2013

  Actual Average Record
Temperature  
Mean Temperature 55 °F -  
Max Temperature 64 °F - 68 °F (2011)
Min Temperature 46 °F - 37 °F (2016)
Degree Days  
Heating Degree Days 10    
Month to date heating degree days  
Cooling Degree Days 0    
Month to date cooling degree days  
Growing Degree Days 5 (Base 50)    
Moisture  
Dew Point 40 °F    
Average Humidity 59    
Maximum Humidity 87    
Minimum Humidity 34    
Precipitation  
Precipitation 0.01 in - 0.54 in (2012)
Sea Level Pressure  
Sea Level Pressure 30.61 in    
Wind  
Wind Speed 12 mph (SW)    
Max Wind Speed 29 mph    
Max Gust Speed 39 mph    
Visibility 10 miles    
Events Rain , Thunderstorm    
T = Trace of Precipitation, MM = Missing Value Source: NWS Daily Summary

Daily Weather History Graph

Daily Weather History Graph

Search for Another Location

Airport or City:

Trip Planner

Search our weather history database for the weather conditions in past years. The results will help you decide how hot, cold, wet, or windy it might be!

Date:

Astronomy

Aug. 23, 2013 Rise Set
Actual Time 6:24 AM MDT 7:48 PM MDT
Civil Twilight 5:56 AM MDT 8:16 PM MDT
Nautical Twilight 5:23 AM MDT 8:50 PM MDT
Astronomical Twilight 4:47 AM MDT 9:25 PM MDT
Moon 9:10 PM MDT 9:22 AM MDT
Length of Visible Light 14h 19m
Length of Day
13h 23m
Waning Gibbous, 91% of the Moon is Illuminated
Aug 23
Waning Gibbous
Aug 28
Last Quarter
Sep 5
New
Sep 12
First Quarter
Sep 19
Full

Hourly Weather History & Observations

Time (MDT) Temp. Windchill Dew Point Humidity Pressure Visibility Wind Dir Wind Speed Gust Speed Precip Events Conditions
12:14 AM 48.2 °F - 41.0 °F 76% 30.68 in 10.0 mi WSW 4.6 mph - N/A   Overcast
12:34 AM 46.4 °F 43.5 °F 42.8 °F 87% 30.68 in 10.0 mi South 5.8 mph - N/A   Overcast
12:54 AM 48.2 °F - 41.0 °F 76% 30.68 in 10.0 mi SSW 4.6 mph - N/A   Overcast
1:14 AM 50.0 °F - 42.8 °F 76% 30.67 in 10.0 mi South 10.4 mph - N/A Thunderstorm Overcast
1:34 AM 48.2 °F - 42.8 °F 82% 30.67 in 10.0 mi SSE 12.7 mph - N/A   Overcast
1:54 AM 50.0 °F - 42.8 °F 76% 30.67 in 10.0 mi South 13.8 mph - N/A   Mostly Cloudy
2:14 AM 50.0 °F - 42.8 °F 76% 30.65 in 10.0 mi South 18.4 mph - N/A   Scattered Clouds
2:34 AM 50.0 °F - 42.8 °F 76% 30.64 in 10.0 mi South 17.3 mph - N/A   Scattered Clouds
2:54 AM 48.2 °F - 41.0 °F 76% 30.64 in 10.0 mi South 17.3 mph - N/A Thunderstorm Scattered Clouds
3:14 AM 48.2 °F - 41.0 °F 76% 30.64 in 10.0 mi South 15.0 mph - N/A   Clear
3:34 AM 50.0 °F - 41.0 °F 71% 30.64 in 10.0 mi South 19.6 mph - N/A   Clear
3:54 AM 51.8 °F - 42.8 °F 71% 30.62 in 10.0 mi South 23.0 mph - N/A   Clear
4:14 AM 51.8 °F - 42.8 °F 71% 30.63 in 10.0 mi South 21.9 mph - N/A   Clear
4:34 AM 51.8 °F - 42.8 °F 71% 30.62 in 10.0 mi South 23.0 mph - N/A   Clear
4:54 AM 51.8 °F - 42.8 °F 71% 30.62 in 10.0 mi South 19.6 mph - N/A   Clear
5:14 AM 51.8 °F - 42.8 °F 71% 30.62 in 10.0 mi South 20.7 mph - N/A   Clear
5:34 AM 51.8 °F - 41.0 °F 67% 30.62 in 10.0 mi South 18.4 mph - N/A   Clear
5:54 AM 51.8 °F - 42.8 °F 71% 30.62 in 10.0 mi South 20.7 mph - N/A   Clear
6:14 AM 51.8 °F - 41.0 °F 67% 30.62 in 10.0 mi South 19.6 mph - N/A   Clear
6:34 AM 51.8 °F - 41.0 °F 67% 30.62 in 10.0 mi South 16.1 mph 23.0 mph N/A   Clear
6:54 AM 51.8 °F - 37.4 °F 58% 30.62 in 10.0 mi SW 6.9 mph 16.1 mph N/A   Clear
7:14 AM 53.6 °F - 39.2 °F 58% 30.62 in 10.0 mi SSW 9.2 mph - N/A   Clear
7:34 AM 53.6 °F - 41.0 °F 62% 30.62 in 10.0 mi SSW 5.8 mph - N/A   Clear
7:54 AM 53.6 °F - 39.2 °F 58% 30.62 in 10.0 mi SW 4.6 mph - N/A   Clear
8:14 AM 53.6 °F - 37.4 °F 54% 30.63 in 10.0 mi SSW 5.8 mph - N/A   Clear
8:34 AM 53.6 °F - 37.4 °F 54% 30.63 in 10.0 mi West 11.5 mph - N/A   Clear
8:54 AM 53.6 °F - 37.4 °F 54% 30.63 in 10.0 mi WSW 6.9 mph - N/A   Clear
9:14 AM 55.4 °F - 41.0 °F 58% 30.64 in 10.0 mi West 8.1 mph - N/A   Clear
9:34 AM 55.4 °F - 41.0 °F 58% 30.64 in 10.0 mi West 5.8 mph - N/A   Scattered Clouds
9:54 AM 55.4 °F - 41.0 °F 58% 30.64 in 10.0 mi West 8.1 mph - N/A   Mostly Cloudy
10:14 AM 57.2 °F - 41.0 °F 55% 30.64 in 10.0 mi WSW 6.9 mph - N/A   Scattered Clouds
10:34 AM 59.0 °F - 42.8 °F 55% 30.64 in 10.0 mi WSW 8.1 mph - N/A   Clear
10:54 AM 59.0 °F - 41.0 °F 51% 30.64 in 10.0 mi WSW 10.4 mph 17.3 mph N/A   Clear
11:14 AM 59.0 °F - 37.4 °F 45% 30.64 in 10.0 mi West 9.2 mph - N/A   Scattered Clouds
11:34 AM 59.0 °F - 37.4 °F 45% 30.64 in 10.0 mi WSW 4.6 mph 16.1 mph N/A   Scattered Clouds
11:54 AM 64.4 °F - 39.2 °F 40% 30.64 in 10.0 mi SSW 5.8 mph - N/A   Scattered Clouds
12:14 PM 64.4 °F - 41.0 °F 42% 30.64 in 10.0 mi WSW 6.9 mph - N/A   Clear
12:34 PM 64.4 °F - 37.4 °F 37% 30.63 in 10.0 mi South 9.2 mph 18.4 mph N/A   Scattered Clouds
12:54 PM 64.4 °F - 37.4 °F 37% 30.62 in 10.0 mi West 6.9 mph - N/A   Scattered Clouds
1:14 PM 64.4 °F - 37.4 °F 37% 30.62 in 10.0 mi WSW 5.8 mph - N/A   Mostly Cloudy
1:34 PM 64.4 °F - 37.4 °F 37% 30.61 in 10.0 mi West 11.5 mph - N/A   Overcast
1:54 PM 64.4 °F - 37.4 °F 37% 30.60 in 10.0 mi SW 5.8 mph - N/A Thunderstorm Thunderstorm
2:14 PM 64.4 °F - 37.4 °F 37% 30.59 in 10.0 mi West 10.4 mph 18.4 mph N/A Thunderstorm Scattered Clouds
2:34 PM 64.4 °F - 35.6 °F 34% 30.58 in 10.0 mi West 10.4 mph 23.0 mph N/A   Mostly Cloudy
2:54 PM 64.4 °F - 41.0 °F 42% 30.57 in 10.0 mi East 9.2 mph - N/A Thunderstorm Mostly Cloudy
3:14 PM 60.8 °F - 42.8 °F 52% 30.56 in 10.0 mi SSE 4.6 mph - N/A Thunderstorm Thunderstorm
3:34 PM 60.8 °F - 41.0 °F 48% 30.56 in 10.0 mi SSE 8.1 mph 17.3 mph N/A Thunderstorm Thunderstorm
3:54 PM 59.0 °F - 42.8 °F 55% 30.56 in 10.0 mi East 6.9 mph - 0.01 in Rain , Thunderstorm Light Thunderstorms and Rain
4:14 PM 59.0 °F - 37.4 °F 45% 30.55 in 10.0 mi SSE 28.8 mph 35.7 mph N/A Thunderstorm Thunderstorm
4:34 PM 53.6 °F - 35.6 °F 51% 30.56 in 10.0 mi SSE 21.9 mph 39.1 mph N/A Rain , Thunderstorm Light Thunderstorms and Rain
4:54 PM 57.2 °F - 33.8 °F 41% 30.57 in 10.0 mi South 21.9 mph 26.5 mph N/A Thunderstorm Mostly Cloudy
5:14 PM 59.0 °F - 32.0 °F 36% 30.57 in 10.0 mi South 17.3 mph 24.2 mph N/A Thunderstorm Mostly Cloudy
5:34 PM 59.0 °F - 32.0 °F 36% 30.56 in 10.0 mi South 16.1 mph 21.9 mph N/A   Scattered Clouds
5:54 PM 59.0 °F - 32.0 °F 36% 30.56 in 10.0 mi South 18.4 mph 24.2 mph N/A Thunderstorm Clear
6:14 PM 59.0 °F - 32.0 °F 36% 30.55 in 10.0 mi South 18.4 mph - N/A   Clear
6:34 PM 59.0 °F - 32.0 °F 36% 30.55 in 10.0 mi South 18.4 mph 24.2 mph N/A   Clear
6:54 PM 59.0 °F - 41.0 °F 51% 30.54 in 10.0 mi West 25.3 mph - N/A   Clear
7:14 PM 53.6 °F - 41.0 °F 62% 30.55 in 10.0 mi West 12.7 mph 18.4 mph N/A   Clear
7:34 PM 53.6 °F - 42.8 °F 67% 30.55 in 10.0 mi West 19.6 mph - N/A Thunderstorm Mostly Cloudy
7:54 PM 50.0 °F - 41.0 °F 71% 30.56 in 10.0 mi West 15.0 mph 20.7 mph N/A   Mostly Cloudy
8:14 PM 51.8 °F - 41.0 °F 67% 30.57 in 10.0 mi West 15.0 mph - N/A Thunderstorm Overcast
8:34 PM 53.6 °F - 42.8 °F 67% 30.57 in 10.0 mi West 9.2 mph - N/A   Overcast
8:54 PM 53.6 °F - 39.2 °F 58% 30.57 in 10.0 mi West 10.4 mph - N/A Thunderstorm Mostly Cloudy
9:14 PM 53.6 °F - 41.0 °F 62% 30.58 in 10.0 mi West 13.8 mph - N/A Thunderstorm Mostly Cloudy
9:34 PM 51.8 °F - 42.8 °F 71% 30.59 in 10.0 mi West 12.7 mph - N/A Thunderstorm Thunderstorm
9:54 PM 48.2 °F - 41.0 °F 76% 30.59 in 10.0 mi West 10.4 mph - N/A   Mostly Cloudy
10:14 PM 48.2 °F - 41.0 °F 76% 30.59 in 10.0 mi West 16.1 mph - N/A   Mostly Cloudy
10:34 PM 46.4 °F 41.5 °F 41.0 °F 81% 30.59 in 10.0 mi West 10.4 mph - N/A Thunderstorm Scattered Clouds
10:54 PM 46.4 °F 40.7 °F 37.4 °F 71% 30.59 in 10.0 mi West 12.7 mph - N/A   Clear
11:14 PM 46.4 °F 40.4 °F 39.2 °F 76% 30.58 in 10.0 mi West 13.8 mph - N/A   Scattered Clouds
11:34 PM 46.4 °F 41.1 °F 37.4 °F 71% 30.58 in 10.0 mi West 11.5 mph - N/A   Clear
11:54 PM 46.4 °F 42.9 °F 39.2 °F 76% 30.57 in 10.0 mi West 6.9 mph - N/A   Clear